Time,TemperatureF,DewpointF,PressureIn,WindDirection,WindDirectionDegrees,WindSpeedMPH,WindSpeedGustMPH,Humidity,HourlyPrecipIn,Conditions,Clouds,dailyrainin,SoftwareType,DateUTC
2013-03-26 00:02:00,54.0,42.0,29.92,SSW,213,0.0,0.0,64,0.00,,,0.00,,2013-03-26 07:02:00,
2013-03-26 00:11:00,54.0,42.0,29.92,SSW,213,0.0,0.0,64,0.00,,,0.00,,2013-03-26 07:11:00,
2013-03-26 00:22:00,53.0,40.0,29.92,SSW,213,0.0,0.0,62,0.00,,,0.00,,2013-03-26 07:22:00,
2013-03-26 00:32:00,54.0,40.0,29.91,SSW,213,0.0,0.0,60,0.00,,,0.00,,2013-03-26 07:32:00,
2013-03-26 00:42:00,54.0,40.0,29.91,SSW,213,0.0,0.0,60,0.00,,,0.00,,2013-03-26 07:42:00,
2013-03-26 00:52:00,54.0,41.0,29.91,SSW,213,0.0,0.0,62,0.00,,,0.00,,2013-03-26 07:52:00,
2013-03-26 01:01:00,54.0,43.0,29.91,SSW,213,0.0,0.0,65,0.00,,,0.00,,2013-03-26 08:01:00,
2013-03-26 01:12:00,54.0,43.0,29.91,SSW,213,0.0,0.0,65,0.00,,,0.00,,2013-03-26 08:12:00,
2013-03-26 01:21:00,53.0,41.0,29.91,SSW,213,0.0,0.0,64,0.00,,,0.00,,2013-03-26 08:21:00,
2013-03-26 01:31:00,53.0,39.0,29.91,SSW,213,0.0,0.0,60,0.00,,,0.00,,2013-03-26 08:31:00,
2013-03-26 01:42:00,53.0,39.0,29.91,SSW,213,0.0,0.0,60,0.00,,,0.00,,2013-03-26 08:42:00,
2013-03-26 01:52:00,52.0,41.0,29.91,SSW,213,0.0,0.0,66,0.00,,,0.00,,2013-03-26 08:52:00,
2013-03-26 02:01:00,52.0,41.0,29.91,SSW,213,0.0,0.0,65,0.00,,,0.00,,2013-03-26 09:01:00,
2013-03-26 02:11:00,52.0,41.0,29.91,SSW,213,0.0,0.0,65,0.00,,,0.00,,2013-03-26 09:11:00,
2013-03-26 02:21:00,52.0,42.0,29.91,SSW,213,0.0,0.0,68,0.00,,,0.00,,2013-03-26 09:21:00,
2013-03-26 02:32:00,51.0,40.0,29.91,SSW,213,0.0,0.0,67,0.00,,,0.00,,2013-03-26 09:32:00,
2013-03-26 02:42:00,51.0,40.0,29.91,SSW,213,0.0,0.0,67,0.00,,,0.00,,2013-03-26 09:42:00,
2013-03-26 02:52:00,54.0,41.0,29.91,SW,214,0.0,1.0,61,0.00,,,0.00,,2013-03-26 09:52:00,
2013-03-26 03:02:00,52.0,41.0,29.91,SW,214,0.0,0.0,66,0.00,,,0.00,,2013-03-26 10:02:00,
2013-03-26 03:12:00,52.0,41.0,29.91,SW,214,0.0,0.0,66,0.00,,,0.00,,2013-03-26 10:12:00,
2013-03-26 03:22:00,52.0,41.0,29.90,SW,214,0.0,0.0,67,0.00,,,0.00,,2013-03-26 10:22:00,
2013-03-26 03:32:00,52.0,42.0,29.90,SW,214,0.0,0.0,69,0.00,,,0.00,,2013-03-26 10:32:00,
2013-03-26 03:42:00,52.0,42.0,29.90,SW,214,0.0,0.0,69,0.00,,,0.00,,2013-03-26 10:42:00,
2013-03-26 03:52:00,51.0,41.0,29.90,SW,214,0.0,0.0,68,0.00,,,0.00,,2013-03-26 10:52:00,
2013-03-26 04:02:00,50.0,40.0,29.90,SW,214,0.0,0.0,68,0.00,,,0.00,,2013-03-26 11:02:00,
2013-03-26 04:11:00,50.0,40.0,29.90,SW,214,0.0,0.0,68,0.00,,,0.00,,2013-03-26 11:11:00,
2013-03-26 04:21:00,50.0,42.0,29.90,SW,214,0.0,0.0,74,0.00,,,0.00,,2013-03-26 11:21:00,
2013-03-26 04:31:00,50.0,41.0,29.90,SW,214,0.0,0.0,70,0.00,,,0.00,,2013-03-26 11:31:00,
2013-03-26 04:42:00,50.0,41.0,29.90,SW,214,0.0,0.0,70,0.00,,,0.00,,2013-03-26 11:42:00,
2013-03-26 04:52:00,50.0,40.0,29.90,SW,214,0.0,0.0,69,0.00,,,0.00,,2013-03-26 11:52:00,
2013-03-26 05:02:00,50.0,40.0,29.90,SW,214,0.0,0.0,69,0.00,,,0.00,,2013-03-26 12:02:00,
2013-03-26 05:21:00,51.0,40.0,29.90,SW,217,0.0,0.0,67,0.00,,,0.00,,2013-03-26 12:21:00,
2013-03-26 05:31:00,50.0,39.0,29.90,SW,217,0.0,0.0,67,0.00,,,0.00,,2013-03-26 12:31:00,
2013-03-26 05:42:00,50.0,39.0,29.90,SW,217,0.0,0.0,67,0.00,,,0.00,,2013-03-26 12:42:00,
2013-03-26 05:52:00,49.0,40.0,29.90,SW,217,0.0,0.0,70,0.00,,,0.00,,2013-03-26 12:52:00,
2013-03-26 06:02:00,49.0,40.0,29.90,SW,217,0.0,0.0,70,0.00,,,0.00,,2013-03-26 13:02:00,
2013-03-26 06:11:00,49.0,40.0,29.90,SW,217,0.0,0.0,70,0.00,,,0.00,,2013-03-26 13:11:00,
2013-03-26 06:22:00,49.0,39.0,29.90,SW,217,0.0,0.0,68,0.00,,,0.00,,2013-03-26 13:22:00,
2013-03-26 06:32:00,48.0,39.0,29.90,SW,217,0.0,0.0,70,0.00,,,0.00,,2013-03-26 13:32:00,
2013-03-26 06:42:00,48.0,39.0,29.90,SW,217,0.0,0.0,70,0.00,,,0.00,,2013-03-26 13:42:00,
2013-03-26 06:52:00,48.0,40.0,29.91,SW,217,0.0,0.0,73,0.00,,,0.00,,2013-03-26 13:52:00,
2013-03-26 07:01:00,47.0,39.0,29.91,SW,217,0.0,0.0,74,0.00,,,0.00,,2013-03-26 14:01:00,
2013-03-26 07:11:00,47.0,39.0,29.91,SW,217,0.0,0.0,74,0.00,,,0.00,,2013-03-26 14:11:00,
2013-03-26 07:22:00,48.0,39.0,29.91,SW,217,0.0,0.0,72,0.00,,,0.00,,2013-03-26 14:22:00,
2013-03-26 07:32:00,48.0,39.0,29.91,SW,217,0.0,0.0,72,0.00,,,0.00,,2013-03-26 14:32:00,
2013-03-26 07:42:00,48.0,39.0,29.91,SW,217,0.0,0.0,72,0.00,,,0.00,,2013-03-26 14:42:00,
2013-03-26 07:52:00,49.0,39.0,29.91,SW,215,0.0,1.0,69,0.00,,,0.00,,2013-03-26 14:52:00,
2013-03-26 08:02:00,49.0,39.0,29.91,SW,215,0.0,1.0,69,0.00,,,0.00,,2013-03-26 15:02:00,
2013-03-26 08:11:00,49.0,39.0,29.91,SW,215,0.0,1.0,69,0.00,,,0.00,,2013-03-26 15:11:00,
2013-03-26 08:21:00,49.0,41.0,29.92,SW,215,0.0,0.0,73,0.00,,,0.00,,2013-03-26 15:21:00,
2013-03-26 08:33:00,51.0,42.0,29.92,SW,215,0.0,1.0,70,0.00,,,0.00,,2013-03-26 15:33:00,
2013-03-26 08:52:00,53.0,42.0,29.93,SW,215,0.0,0.0,67,0.00,,,0.00,,2013-03-26 15:52:00,
2013-03-26 09:02:00,54.0,43.0,29.93,SW,215,0.0,0.0,67,0.00,,,0.00,,2013-03-26 16:02:00,
2013-03-26 09:22:00,57.0,44.0,29.93,SW,215,0.0,0.0,62,0.00,,,0.00,,2013-03-26 16:22:00,
2013-03-26 09:32:00,57.0,44.0,29.94,SW,215,0.0,0.0,61,0.00,,,0.00,,2013-03-26 16:32:00,
2013-03-26 09:42:00,57.0,44.0,29.94,SW,215,0.0,0.0,61,0.00,,,0.00,,2013-03-26 16:42:00,
2013-03-26 09:53:00,59.0,45.0,29.94,SW,216,0.0,0.0,60,0.00,,,0.00,,2013-03-26 16:53:00,
2013-03-26 10:02:00,59.0,46.0,29.94,SW,216,0.0,0.0,61,0.00,,,0.00,,2013-03-26 17:02:00,
2013-03-26 10:12:00,59.0,46.0,29.94,SW,216,0.0,0.0,61,0.00,,,0.00,,2013-03-26 17:12:00,
2013-03-26 10:22:00,61.0,47.0,29.94,SW,221,0.0,1.0,61,0.00,,,0.00,,2013-03-26 17:22:00,
2013-03-26 10:32:00,62.0,48.0,29.94,SW,226,0.0,1.0,61,0.00,,,0.00,,2013-03-26 17:32:00,
2013-03-26 10:42:00,62.0,48.0,29.94,SW,226,0.0,1.0,61,0.00,,,0.00,,2013-03-26 17:42:00,
2013-03-26 10:52:00,64.0,50.0,29.94,SW,214,2.0,4.0,60,0.00,,,0.00,,2013-03-26 17:52:00,
2013-03-26 11:01:00,64.0,51.0,29.94,SW,235,1.0,9.0,62,0.00,,,0.00,,2013-03-26 18:01:00,
2013-03-26 11:12:00,64.0,51.0,29.94,SW,235,1.0,9.0,62,0.00,,,0.00,,2013-03-26 18:12:00,
2013-03-26 11:22:00,65.0,51.0,29.94,SW,215,0.0,6.0,60,0.00,,,0.00,,2013-03-26 18:22:00,
2013-03-26 11:33:00,65.0,49.0,29.94,SSW,206,0.0,7.0,57,0.00,,,0.00,,2013-03-26 18:33:00,
2013-03-26 11:41:00,65.0,49.0,29.94,SSW,206,0.0,7.0,57,0.00,,,0.00,,2013-03-26 18:41:00,
2013-03-26 11:52:00,66.0,50.0,29.94,SSW,203,1.0,6.0,56,0.00,,,0.00,,2013-03-26 18:52:00,
2013-03-26 12:01:00,67.0,51.0,29.94,SW,233,2.0,7.0,56,0.00,,,0.00,,2013-03-26 19:01:00,
2013-03-26 12:11:00,67.0,51.0,29.94,SW,233,2.0,7.0,56,0.00,,,0.00,,2013-03-26 19:11:00,
2013-03-26 12:22:00,68.0,51.0,29.93,WSW,245,3.0,7.0,55,0.00,,,0.00,,2013-03-26 19:22:00,
2013-03-26 12:32:00,68.0,52.0,29.93,WSW,239,3.0,10.0,56,0.00,,,0.00,,2013-03-26 19:32:00,
2013-03-26 12:42:00,68.0,52.0,29.93,WSW,239,3.0,10.0,56,0.00,,,0.00,,2013-03-26 19:42:00,
2013-03-26 12:53:00,69.0,50.0,29.92,SSW,205,3.0,6.0,51,0.00,,,0.00,,2013-03-26 19:53:00,
2013-03-26 13:01:00,70.0,50.0,29.92,SW,232,1.0,5.0,50,0.00,,,0.00,,2013-03-26 20:01:00,
2013-03-26 13:11:00,70.0,50.0,29.92,SW,232,1.0,5.0,50,0.00,,,0.00,,2013-03-26 20:11:00,
2013-03-26 13:22:00,70.0,51.0,29.92,SW,225,1.0,7.0,51,0.00,,,0.00,,2013-03-26 20:22:00,
2013-03-26 13:31:00,69.0,50.0,29.92,SW,214,1.0,7.0,50,0.00,,,0.00,,2013-03-26 20:31:00,
2013-03-26 13:42:00,69.0,50.0,29.92,SW,214,1.0,7.0,50,0.00,,,0.00,,2013-03-26 20:42:00,
2013-03-26 13:52:00,68.0,50.0,29.92,South,169,1.0,7.0,53,0.00,,,0.00,,2013-03-26 20:52:00,
2013-03-26 14:01:00,69.0,50.0,29.92,SW,224,1.0,10.0,51,0.00,,,0.00,,2013-03-26 21:01:00,
2013-03-26 14:12:00,69.0,50.0,29.92,SW,224,1.0,10.0,51,0.00,,,0.00,,2013-03-26 21:12:00,
2013-03-26 14:22:00,68.0,50.0,29.92,WSW,246,2.0,10.0,53,0.00,,,0.00,,2013-03-26 21:22:00,
2013-03-26 14:32:00,68.0,50.0,29.92,WSW,246,2.0,10.0,53,0.00,,,0.00,,2013-03-26 21:32:00,
2013-03-26 14:42:00,68.0,50.0,29.92,WSW,246,2.0,10.0,53,0.00,,,0.00,,2013-03-26 21:42:00,
2013-03-26 14:52:00,68.0,50.0,29.92,WSW,246,2.0,10.0,53,0.00,,,0.00,,2013-03-26 21:52:00,
2013-03-26 15:22:00,69.0,51.0,29.90,SSW,192,0.0,9.0,52,0.00,,,0.00,,2013-03-26 22:22:00,
2013-03-26 15:32:00,69.0,51.0,29.90,SSW,192,0.0,9.0,52,0.00,,,0.00,,2013-03-26 22:32:00,
2013-03-26 15:41:00,69.0,51.0,29.90,SSW,192,0.0,9.0,52,0.00,,,0.00,,2013-03-26 22:41:00,
2013-03-26 15:51:00,69.0,51.0,29.90,SSW,192,0.0,9.0,52,0.00,,,0.00,,2013-03-26 22:51:00,
2013-03-26 16:22:00,69.0,51.0,29.89,SSW,201,0.0,6.0,52,0.00,,,0.00,,2013-03-26 23:22:00,
2013-03-26 16:32:00,67.0,50.0,29.88,South,176,0.0,10.0,55,0.00,,,0.00,,2013-03-26 23:32:00,
2013-03-26 16:42:00,67.0,50.0,29.88,South,176,0.0,10.0,55,0.00,,,0.00,,2013-03-26 23:42:00,
2013-03-26 16:52:00,65.0,49.0,29.88,South,175,0.0,5.0,57,0.00,,,0.00,,2013-03-26 23:52:00,
2013-03-26 17:01:00,66.0,49.0,29.88,South,184,4.0,7.0,55,0.00,,,0.00,,2013-03-27 00:01:00,
2013-03-26 17:11:00,66.0,49.0,29.88,South,184,4.0,7.0,55,0.00,,,0.00,,2013-03-27 00:11:00,
2013-03-26 17:22:00,65.0,50.0,29.88,SSW,200,0.0,6.0,58,0.00,,,0.00,,2013-03-27 00:22:00,
2013-03-26 17:32:00,64.0,49.0,29.88,South,182,0.0,4.0,59,0.00,,,0.00,,2013-03-27 00:32:00,
2013-03-26 17:42:00,64.0,49.0,29.88,South,182,0.0,4.0,59,0.00,,,0.00,,2013-03-27 00:42:00,
2013-03-26 17:52:00,64.0,50.0,29.88,SSW,213,0.0,5.0,61,0.00,,,0.00,,2013-03-27 00:52:00,
2013-03-26 18:01:00,64.0,50.0,29.88,SW,233,1.0,3.0,61,0.00,,,0.00,,2013-03-27 01:01:00,
2013-03-26 18:22:00,62.0,50.0,29.88,South,174,2.0,6.0,64,0.00,,,0.00,,2013-03-27 01:22:00,
2013-03-26 18:32:00,62.0,50.0,29.87,South,182,0.0,4.0,65,0.00,,,0.00,,2013-03-27 01:32:00,
2013-03-26 18:42:00,62.0,50.0,29.87,South,182,0.0,4.0,65,0.00,,,0.00,,2013-03-27 01:42:00,
2013-03-26 18:52:00,61.0,50.0,29.88,SSW,202,0.0,4.0,67,0.00,,,0.00,,2013-03-27 01:52:00,
2013-03-26 19:02:00,60.0,50.0,29.88,SSW,202,0.0,1.0,69,0.00,,,0.00,,2013-03-27 02:02:00,
2013-03-26 19:12:00,60.0,50.0,29.88,SSW,202,0.0,1.0,69,0.00,,,0.00,,2013-03-27 02:12:00,
2013-03-26 19:21:00,58.0,49.0,29.88,SSW,203,0.0,0.0,73,0.00,,,0.00,,2013-03-27 02:21:00,
2013-03-26 19:31:00,57.0,49.0,29.88,SSW,203,0.0,0.0,75,0.00,,,0.00,,2013-03-27 02:31:00,
2013-03-26 19:42:00,57.0,49.0,29.88,SSW,203,0.0,0.0,75,0.00,,,0.00,,2013-03-27 02:42:00,
2013-03-26 19:52:00,55.0,49.0,29.89,SSW,203,0.0,0.0,80,0.00,,,0.00,,2013-03-27 02:52:00,
2013-03-26 20:02:00,54.0,49.0,29.89,SSW,203,0.0,0.0,82,0.00,,,0.00,,2013-03-27 03:02:00,
2013-03-26 20:11:00,54.0,49.0,29.89,SSW,203,0.0,0.0,82,0.00,,,0.00,,2013-03-27 03:11:00,
2013-03-26 20:22:00,54.0,49.0,29.89,SSW,203,0.0,0.0,83,0.00,,,0.00,,2013-03-27 03:22:00,
2013-03-26 20:32:00,54.0,49.0,29.90,SSW,203,0.0,0.0,83,0.00,,,0.00,,2013-03-27 03:32:00,
2013-03-26 20:42:00,54.0,49.0,29.90,SSW,203,0.0,0.0,83,0.00,,,0.00,,2013-03-27 03:42:00,
2013-03-26 20:53:00,54.0,49.0,29.90,SSW,203,0.0,0.0,83,0.00,,,0.00,,2013-03-27 03:53:00,
2013-03-26 21:02:00,53.0,48.0,29.90,SSW,203,0.0,0.0,84,0.00,,,0.00,,2013-03-27 04:02:00,
2013-03-26 21:12:00,53.0,48.0,29.90,SSW,203,0.0,0.0,84,0.00,,,0.00,,2013-03-27 04:12:00,
2013-03-26 21:22:00,53.0,49.0,29.91,SSW,203,0.0,0.0,86,0.00,,,0.00,,2013-03-27 04:22:00,
2013-03-26 21:32:00,52.0,48.0,29.91,SSW,203,0.0,0.0,87,0.00,,,0.00,,2013-03-27 04:32:00,
2013-03-26 21:42:00,52.0,48.0,29.91,SSW,203,0.0,0.0,87,0.00,,,0.00,,2013-03-27 04:42:00,
2013-03-26 21:52:00,53.0,50.0,29.91,SSW,203,0.0,0.0,88,0.00,,,0.00,,2013-03-27 04:52:00,
2013-03-26 22:01:00,52.0,49.0,29.92,SSW,203,0.0,0.0,88,0.00,,,0.00,,2013-03-27 05:01:00,
2013-03-26 22:12:00,52.0,49.0,29.92,SSW,203,0.0,0.0,88,0.00,,,0.00,,2013-03-27 05:12:00,
2013-03-26 22:22:00,52.0,49.0,29.92,SSW,203,0.0,0.0,88,0.00,,,0.00,,2013-03-27 05:22:00,
2013-03-26 22:32:00,51.0,48.0,29.92,SSW,203,0.0,0.0,89,0.00,,,0.00,,2013-03-27 05:32:00,
2013-03-26 22:42:00,51.0,48.0,29.92,SSW,203,0.0,0.0,89,0.00,,,0.00,,2013-03-27 05:42:00,
2013-03-26 22:52:00,50.0,48.0,29.93,SSW,203,0.0,0.0,92,0.00,,,0.00,,2013-03-27 05:52:00,
2013-03-26 23:01:00,50.0,48.0,29.93,SSW,203,0.0,0.0,92,0.00,,,0.00,,2013-03-27 06:01:00,
2013-03-26 23:11:00,50.0,48.0,29.93,SSW,203,0.0,0.0,92,0.00,,,0.00,,2013-03-27 06:11:00,
2013-03-26 23:22:00,49.0,47.0,29.93,SSW,203,0.0,0.0,93,0.00,,,0.00,,2013-03-27 06:22:00,
2013-03-26 23:32:00,50.0,48.0,29.93,SSW,203,0.0,0.0,94,0.00,,,0.00,,2013-03-27 06:32:00,
2013-03-26 23:42:00,50.0,48.0,29.93,SSW,203,0.0,0.0,94,0.00,,,0.00,,2013-03-27 06:42:00,
2013-03-26 23:52:00,50.0,48.0,29.93,SSW,203,0.0,0.0,94,0.00,,,0.00,,2013-03-27 06:52:00,